[[{"header":{"parameterUnit":"m.s-1","parameterCategory":1,"la1":30.2991,"la2":30.254,"lo1":-89.0895,"lo2":-89.0444,"dy":0.0017,"dx":0.0017,"nx":28,"ny":28,"refTime":"2025-05-22T21:00:00:Z","depth":0,"parameterNumber":2,"parameterNumberName":"U-component_of_WINDS"},"data":[0,0,0,0,0,0,0,0,0,0,0,0,0,0,0,0,0,0,0,0,0,0,0,0,0,0,0,0,0,0,0,0,0,0,0,0,0,0,0,0,0,0,0,0,0,0,0,0,0,0,0,0,0,0,0,0,0,0,0.7756,0.7757,0,0.7833,0.7834,0.7834,0.7858,0.7858,0.7857,0.7857,0.7934,0.7937,0.7939,0,0,0,0,0,0,0,0,0,0,0,0,0,0.7627,0.7629,0.7756,0.7757,0.7758,0.7833,0.7834,0.7835,0.7858,0.7858,0.7857,0.7857,0.7934,0.7936,0.7939,0,0,0,0,0,0,0,0,0,0,0,0,0,0.7691,0.763,0.7756,0.7778,0.7781,0.7832,0.7834,0.7835,0.7858,0.7858,0.7857,0.7857,0.7933,0.7936,0.794,0.7973,0,0,0.7951,0.7952,0,0,0,0,0,0,0,0,0.7687,0.7696,0.7774,0.7777,0.778,0.7835,0.7817,0.7881,0.7858,0.7829,0.7857,0.7856,0.7902,0.7908,0.7924,0.7977,0.798,0.7951,0.7953,0.7955,0.7956,0,0,0,0,0,0,0,0.7683,0.7693,0.7786,0.7775,0.7779,0.7784,0.7793,0.7829,0.7868,0.7831,0.7833,0.7842,0.7903,0.792,0.7926,0.7981,0.7951,0.7954,0.7957,0.7958,0.8065,0.8065,0,0,0,0,0,0,0.7675,0.7689,0.7784,0.7788,0.7731,0.7787,0.7796,0.7818,0.7867,0.7874,0.7843,0.7843,0.7914,0.7921,0.7928,0.797,0.7955,0.7958,0.796,0.8064,0.8065,0.8066,0,0,0,0,0,0,0.7672,0.7683,0.7781,0.7739,0.7752,0.779,0.7814,0.782,0.7837,0.7876,0.7882,0.7853,0.7914,0.7923,0.7962,0.7973,0.796,0.7963,0.8063,0.8064,0.8065,0.8054,0,0,0,0,0,0,0.7668,0.7682,0.7696,0.7739,0.7754,0.7813,0.7815,0.7822,0.7843,0.7844,0.7887,0.7893,0.7914,0.7956,0.7965,0.7978,0.7966,0.8062,0.8064,0.8065,0.8053,0.8054,0.8055,0,0,0,0,0,0.7664,0.7689,0.7696,0.7708,0.7772,0.7814,0.7822,0.7846,0.7844,0.7857,0.7882,0.7892,0.797,0.796,0.797,0.7984,0.8062,0.8063,0.8065,0.8053,0.8054,0.8055,0,0,0,0,0,0,0.7646,0.7695,0.7704,0.7745,0.7775,0.7818,0.7836,0.7847,0.7878,0.7878,0.7906,0.7915,0.7951,0.7972,0.7959,0.8018,0.8016,0.802,0.8003,0.8005,0.8006,0.8,0.7969,0,0,0,0,0,0.7647,0.7677,0.7719,0.7751,0.7765,0.7798,0.7817,0.7833,0.7865,0.7878,0.7906,0.7936,0.7967,0.7987,0.8019,0.8056,0.8065,0.8071,0.8071,0.8072,0.8075,0.8095,0.8097,0.807,0.807,0.807,0,0,0.7649,0.768,0.7697,0.7748,0.7773,0.7803,0.7808,0.784,0.7862,0.7882,0.792,0.7942,0.7977,0.8015,0.8033,0.8033,0.8084,0.8074,0.8074,0.8076,0.8097,0.8099,0.8101,0.8071,0.8071,0.8071,0,0,0.7667,0.7695,0.7723,0.7749,0.7787,0.7808,0.7815,0.7856,0.7871,0.791,0.7925,0.7951,0.8005,0.803,0.8049,0.8076,0.8086,0.8085,0.809,0.8109,0.8111,0.8113,0.8122,0.8124,0.8088,0.8088,0.8088,0,0.7665,0.7711,0.7737,0.7768,0.7789,0.7808,0.7837,0.786,0.7906,0.792,0.792,0.7987,0.8013,0.8056,0.8062,0.8078,0.8086,0.808,0.8109,0.8111,0.8113,0.8122,0.8125,0.8088,0.8088,0.8088,0.8088,0,0.7706,0.7737,0.7756,0.78,0.7824,0.7853,0.7882,0.7903,0.7916,0.7937,0.7976,0.8007,0.8044,0.8056,0.8069,0.8101,0.8099,0.8104,0.8102,0.8115,0.8123,0.8127,0.8087,0.8087,0.8087,0.8087,0,0,0.7716,0.7773,0.7779,0.7799,0.7842,0.7867,0.7897,0.7933,0.795,0.7981,0.8006,0.8051,0.8055,0.8077,0.8093,0.811,0.8128,0.8112,0.8113,0.8113,0.8163,0.8159,0.8162,0.8135,0.8136,0.8136,0.816,0,0.7739,0.7794,0.7817,0.7861,0.789,0.7908,0.7934,0.7963,0.7983,0.801,0.8033,0.8063,0.8067,0.808,0.8098,0.8122,0.8138,0.8121,0.8158,0.8159,0.8147,0.8167,0.8163,0.8184,0.8163,0.8164,0.8164,0,0.7774,0.7805,0.7851,0.789,0.7903,0.7926,0.7961,0.7987,0.8019,0.8033,0.8057,0.8072,0.8103,0.81,0.8143,0.8131,0.8147,0.8161,0.8162,0.8166,0.8162,0.817,0.8191,0.8194,0.817,0.8169,0.8169,0,0.7774,0.7828,0.7863,0.7879,0.7925,0.7941,0.7961,0.7993,0.8013,0.8043,0.8057,0.809,0.8108,0.8133,0.8157,0.8153,0.8197,0.8196,0.8208,0.8208,0.8216,0.8215,0.8239,0.8228,0.8228,0.8228,0.8228,0,0.7798,0.7825,0.7863,0.7885,0.7915,0.7942,0.7971,0.7993,0.8021,0.8046,0.8064,0.8087,0.8117,0.8144,0.8162,0.8194,0.8203,0.8214,0.8218,0.8212,0.821,0.8222,0.8221,0.8229,0.8229,0.8229,0.8228,0,0.7804,0.7831,0.7869,0.791,0.7921,0.7941,0.7976,0.7997,0.8018,0.8049,0.8058,0.809,0.8122,0.8149,0.8191,0.8203,0.8236,0.8242,0.8225,0.8227,0.8238,0.8236,0.827,0.8275,0.8261,0.8261,0.8261,0,0.7816,0.7838,0.788,0.7898,0.7918,0.7947,0.7968,0.7994,0.8015,0.8053,0.8069,0.8102,0.813,0.8181,0.8208,0.824,0.8246,0.8255,0.8251,0.8243,0.8245,0.8243,0.8245,0.8255,0.8255,0.8255,0.8255,0,0.7835,0.7847,0.7876,0.791,0.7934,0.7962,0.799,0.8003,0.8035,0.8057,0.809,0.8111,0.8154,0.8187,0.8222,0.8241,0.8253,0.8257,0.8261,0.8254,0.8243,0.8248,0.8225,0.8256,0.8256,0.8256,0.8256,0.8256,0.7844,0.7864,0.7896,0.7928,0.7952,0.7977,0.7999,0.8022,0.805,0.8087,0.8101,0.8135,0.8166,0.8214,0.8234,0.826,0.8261,0.8268,0.8269,0.827,0.8269,0.824,0.8267,0.8267,0.8267,0.8267,0.8267,0,0.7863,0.7885,0.7914,0.7952,0.7977,0.7986,0.8018,0.8037,0.8067,0.8095,0.8122,0.816,0.8191,0.8221,0.8254,0.8269,0.8275,0.8277,0.8275,0.828,0.8267,0.8259,0.8271,0.8271,0.8271,0.8271,0.8271,0.8271,0.7876,0.7909,0.7925,0.7969,0.7991,0.8024,0.8041,0.8065,0.8087,0.8128,0.8155,0.8174,0.8203,0.8238,0.8267,0.8275,0.8285,0.8285,0.8294,0.8281,0.8281,0.828,0.8273,0.8288,0.8288,0.8305,0.8305,0.8305]},{"header":{"parameterUnit":"m.s-1","parameterCategory":1,"la1":30.2991,"la2":30.254,"lo1":-89.0895,"lo2":-89.0444,"dy":0.0017,"dx":0.0017,"nx":28,"ny":28,"refTime":"2025-05-22T21:00:00:Z","depth":0,"parameterNumber":3,"parameterNumberName":"V-component_of_WINDS"},"data":[0,0,0,0,0,0,0,0,0,0,0,0,0,0,0,0,0,0,0,0,0,0,0,0,0,0,0,0,0,0,0,0,0,0,0,0,0,0,0,0,0,0,0,0,0,0,0,0,0,0,0,0,0,0,0,0,0,0,1.2936,1.2936,0,1.2937,1.2937,1.2937,1.2917,1.2916,1.2916,1.2915,1.2915,1.2916,1.2916,0,0,0,0,0,0,0,0,0,0,0,0,0,1.2914,1.2915,1.2936,1.2936,1.2936,1.2937,1.2937,1.2937,1.2917,1.2916,1.2916,1.2915,1.2915,1.2916,1.2916,0,0,0,0,0,0,0,0,0,0,0,0,0,1.292,1.2915,1.2936,1.2926,1.2925,1.2937,1.2937,1.2937,1.2917,1.2916,1.2916,1.2915,1.2915,1.2916,1.2916,1.2937,0,0,1.2919,1.2919,0,0,0,0,0,0,0,0,1.292,1.2921,1.2928,1.2927,1.2926,1.2926,1.2929,1.2937,1.2917,1.292,1.2915,1.2914,1.2919,1.292,1.2922,1.2937,1.2937,1.2919,1.2919,1.2919,1.292,0,0,0,0,0,0,0,1.292,1.2921,1.2936,1.2928,1.2927,1.2921,1.2921,1.293,1.2924,1.292,1.2918,1.2919,1.2919,1.2921,1.2921,1.2937,1.2919,1.2919,1.292,1.292,1.2966,1.2967,0,0,0,0,0,0,1.2921,1.2921,1.2936,1.2936,1.2921,1.2922,1.2922,1.2927,1.2924,1.2923,1.292,1.2918,1.292,1.2921,1.2921,1.2943,1.2919,1.292,1.2921,1.2965,1.2966,1.2967,0,0,0,0,0,0,1.292,1.2922,1.2936,1.2928,1.2929,1.2923,1.2929,1.2927,1.2929,1.2924,1.2922,1.2923,1.2919,1.292,1.2933,1.2943,1.292,1.2921,1.2964,1.2965,1.2966,1.2989,0,0,0,0,0,0,1.292,1.2922,1.2931,1.2928,1.293,1.2948,1.2929,1.2928,1.2931,1.2929,1.2927,1.2926,1.2919,1.2932,1.2933,1.2944,1.2922,1.2963,1.2965,1.2966,1.2987,1.2991,1.2994,0,0,0,0,0,1.2919,1.2938,1.2931,1.2933,1.2941,1.2949,1.295,1.2942,1.2932,1.294,1.2936,1.2926,1.2942,1.2933,1.2935,1.2946,1.2962,1.2964,1.2966,1.2986,1.299,1.2994,0,0,0,0,0,0,1.2942,1.2937,1.293,1.2949,1.2949,1.2946,1.2956,1.2947,1.295,1.2948,1.2938,1.2938,1.2951,1.295,1.294,1.2964,1.295,1.2952,1.2965,1.2969,1.2972,1.2972,1.2922,0,0,0,0,0,1.2949,1.2957,1.2952,1.2969,1.2969,1.2962,1.2966,1.2959,1.296,1.296,1.2957,1.2957,1.2961,1.2965,1.2969,1.2987,1.2985,1.2995,1.2998,1.3001,1.3003,1.3009,1.3013,1.2973,1.2973,1.2972,0,0,1.2964,1.2962,1.2968,1.2973,1.2973,1.298,1.2963,1.2972,1.2977,1.2961,1.2972,1.297,1.2969,1.2983,1.2989,1.2982,1.3013,1.3003,1.3005,1.3006,1.3012,1.3015,1.3019,1.2974,1.2974,1.2973,0,0,1.2995,1.2995,1.3008,1.3007,1.3007,1.3002,1.3005,1.3002,1.2999,1.301,1.2998,1.3003,1.3012,1.3011,1.3012,1.3039,1.303,1.3041,1.3058,1.3065,1.3068,1.3071,1.3079,1.3082,1.3043,1.3043,1.3043,0,1.3013,1.3025,1.3015,1.3025,1.3026,1.3012,1.3024,1.3024,1.3024,1.3025,1.3018,1.3027,1.3025,1.3038,1.3045,1.3046,1.3048,1.3041,1.3068,1.3071,1.3073,1.3081,1.3084,1.3044,1.3044,1.3044,1.3044,0,1.3046,1.3054,1.3064,1.3065,1.3068,1.3078,1.307,1.3073,1.3066,1.3061,1.3071,1.3068,1.3071,1.3073,1.3067,1.3084,1.308,1.307,1.3056,1.3079,1.3086,1.3089,1.3046,1.3046,1.3045,1.3045,0,0,1.3093,1.3087,1.3091,1.309,1.3087,1.3092,1.3101,1.3103,1.3106,1.3106,1.3112,1.3119,1.3109,1.311,1.3103,1.3109,1.3128,1.3098,1.3098,1.3103,1.3145,1.3152,1.3156,1.3122,1.3122,1.3123,1.3145,0,1.3122,1.3138,1.3128,1.3145,1.315,1.3135,1.3142,1.3141,1.3136,1.3139,1.3133,1.3138,1.3126,1.3125,1.3131,1.3125,1.3137,1.3123,1.3126,1.3126,1.3126,1.316,1.3168,1.3189,1.3148,1.3148,1.3149,0,1.3159,1.3159,1.3176,1.317,1.3172,1.3179,1.3179,1.3183,1.3179,1.3175,1.3175,1.3165,1.3172,1.3158,1.3166,1.3157,1.3157,1.3154,1.3154,1.3154,1.3139,1.316,1.3196,1.3199,1.3153,1.3153,1.3153,0,1.3189,1.3195,1.3205,1.3205,1.3198,1.3203,1.32,1.3196,1.3197,1.3197,1.3197,1.3197,1.3197,1.3197,1.3187,1.3178,1.3196,1.3181,1.3191,1.3191,1.3196,1.3195,1.3232,1.3197,1.3197,1.3197,1.3197,0,1.3222,1.3233,1.3218,1.3225,1.3235,1.3223,1.3234,1.3229,1.3225,1.3229,1.3216,1.322,1.3207,1.3209,1.3201,1.3208,1.3208,1.3204,1.3202,1.3205,1.3205,1.3205,1.3203,1.3198,1.3197,1.3197,1.3197,0,1.3259,1.325,1.3259,1.3252,1.325,1.3258,1.325,1.3255,1.3248,1.3253,1.3254,1.3243,1.3245,1.3234,1.3234,1.3229,1.3239,1.3234,1.324,1.3238,1.3248,1.3247,1.3285,1.3289,1.3252,1.3253,1.3253,0,1.328,1.3288,1.328,1.3282,1.3279,1.3283,1.3283,1.3271,1.3272,1.3267,1.3272,1.3272,1.3272,1.3274,1.3266,1.3265,1.326,1.3273,1.326,1.3262,1.3258,1.3258,1.3258,1.3276,1.3276,1.3277,1.3277,0,1.3318,1.3313,1.3315,1.3314,1.3315,1.3313,1.3311,1.3313,1.33,1.3301,1.3302,1.3302,1.3301,1.33,1.3297,1.3293,1.3282,1.3281,1.3283,1.3286,1.3289,1.3286,1.3247,1.328,1.328,1.328,1.328,1.328,1.3347,1.3352,1.3347,1.3348,1.3345,1.3343,1.3346,1.3339,1.334,1.3338,1.3331,1.3333,1.3327,1.3321,1.3318,1.3318,1.3312,1.3315,1.3316,1.3317,1.3318,1.3289,1.3318,1.3318,1.3318,1.3318,1.3318,0,1.3384,1.3379,1.3381,1.3377,1.3378,1.3367,1.3364,1.3365,1.3367,1.3362,1.3361,1.3361,1.336,1.3351,1.3349,1.3351,1.3345,1.335,1.335,1.3349,1.3325,1.3323,1.3354,1.3354,1.3354,1.3354,1.3354,1.3354,1.3403,1.341,1.3404,1.3409,1.3404,1.3406,1.3404,1.3401,1.3397,1.3398,1.3397,1.3391,1.3384,1.338,1.3378,1.3375,1.3375,1.3381,1.3376,1.3354,1.3351,1.3347,1.3345,1.3381,1.3381,1.34,1.34,1.34]}]]